Location: Caltech
(34.1382°N, 118.1253°W)
Time: 12:20:37
(UTC-08:00)

Iridium 95 - Visible Passes

Search period start: 21 November 2014 00:00
Search period end: 01 December 2014 00:00
Orbit: 776 x 779 km, 86.4° (Epoch: 21 November)

Date Brightness Start Highest point End Pass type
(mag) Time Alt. Az. Time Alt. Az. Time Alt. Az.
21 Nov 8.4 03:39:25 10° NE 03:42:10 14° ENE 03:44:55 10° ESE visible
21 Nov 5.6 05:18:08 10° NNW 05:23:10 52° W 05:28:11 10° SSW visible
21 Nov 8.0 18:12:05 10° SW 18:16:05 22° W 18:20:07 10° NNW visible
22 Nov 5.6 04:44:29 10° N 04:49:43 81° E 04:54:54 10° S visible
22 Nov 6.9 17:37:29 10° SSW 17:42:24 43° W 17:47:20 10° NNW visible
23 Nov 6.7 04:11:14 10° NNE 04:16:08 41° E 04:21:00 10° SSE visible
23 Nov 6.8 05:53:01 10° NW 05:56:27 18° W 05:59:53 10° WSW visible
23 Nov 5.7 17:03:38 10° S 17:08:50 84° W 17:14:03 10° N visible
24 Nov 7.8 03:38:30 10° NNE 03:42:26 21° E 03:46:21 10° SE visible
24 Nov 6.1 05:18:30 10° NNW 05:23:10 35° W 05:27:50 10° SSW visible
24 Nov 8.4 18:13:25 10° WSW 18:16:21 15° WNW 18:19:16 10° NW visible
25 Nov 8.5 03:07:28 10° ENE 03:08:36 11° ENE 03:09:45 10° E visible
25 Nov 5.4 04:45:03 12° N 04:49:47 68° W 04:54:56 10° S visible
25 Nov 7.6 17:38:07 10° SW 17:42:34 29° W 17:47:04 10° NNW visible
26 Nov 5.9 04:13:50 31° NNE 04:16:16 62° E 04:21:24 10° SSE visible
26 Nov 7.2 05:54:30 10° WNW 05:56:20 12° W 05:58:11 10° W visible
26 Nov 6.4 17:03:51 10° SSW 17:08:56 56° W 17:14:03 10° N visible
27 Nov 7.1 03:42:11 31° ENE 03:42:39 31° E 03:47:14 10° SE visible
27 Nov 6.5 05:22:46 23° WNW 05:23:08 23° W 05:27:10 10° SW visible
28 Nov 8.2 03:10:16 15° E 03:10:16 15° E 03:12:08 10° ESE visible
28 Nov 6.0 04:50:50 40° WSW 04:50:50 40° WSW 04:54:43 10° SSW visible
28 Nov 8.2 17:39:06 10° SW 17:42:48 20° W 17:46:31 10° NNW visible
29 Nov 6.6 04:18:45 33° S 04:18:45 33° S 04:21:34 10° S visible
29 Nov 7.2 17:04:17 10° SSW 17:09:04 37° W 17:13:53 10° NNW visible
30 Nov 7.7 03:46:32 17° SSE 03:46:32 17° SSE 03:47:48 10° SSE visible
